Tiempo atmosférico en la estación meteorológica de A Lama, Pontevedra (395 m.)

Fecha
DESCASC
Temp. máxima en grados centígrados (hora)
DESCASC
Temp. mínima en grados centígrados (hora)
DESCASC
Temp. media en grados centígrados
DESCASC
Racha de viento máxima en m/sg (hora)
DESCASC
Velocidad máxima media en intervalos de 10 minutos(hora)
DESCASC
Precipitaciones diarias en mm
DESCASC
Precipitaciones de 00:00 a 06:00 en mm
DESCASC
Precipitaciones de 06:00 a 12:00 en mm
DESCASC
Precipitaciones de 12:00 a 18:00 en mm
DESCASC
Precipitaciones de 18:00 a 24:00 en mm
DESCASC
19-10-2017 14.5 (23:20) 6.1 (03:20) 10.3 8.06 (15:30) 3.06 (14:50) 6.6 0 0.2 1 5.4
18-10-2017 14.2 (16:20) 7.8 (23:59) 11 6.39 (00:40) 3.06 (12:30) 12.2 4.6 2.8 4.4 0.4
17-10-2017 17.7 (15:00) 10.3 (09:40) 14 8.89 (14:30) 4.17 (14:30) 18 12 0.2 0.8 5
16-10-2017 23.1 (00:00) 13.5 (19:50) 18.3 11.39 (02:50) 5 (02:50) 2.8 0 0.2 0 2.6
15-10-2017 29.9 (15:40) 13.3 (00:00) 21.6 13.89 (23:00) 5.83 (23:00) 0 0 0 0 0
14-10-2017 28.1 (16:00) 6.5 (00:00) 17.3 8.89 (16:20) 3.61 (15:10) 0 0 0 0 0
13-10-2017 24.6 (14:40) 6 (00:00) 15.3 5.56 (14:40) 3.61 (17:50) 0 0 0 0 0
12-10-2017 27.6 (15:40) 5.8 (00:00) 16.7 5.56 (15:00) 3.33 (16:00) 0 0 0 0 0
11-10-2017 22.5 (16:20) 3.4 (00:00) 13 6.11 (15:40) 3.89 (18:30) 0 0 0 0 0
10-10-2017 29 (15:10) 5.3 (00:00) 17.2 5.28 (00:40) 2.78 (16:30) 0 0 0 0 0
09-10-2017 27.8 (14:50) 6.4 (00:00) 17.1 5.83 (17:20) 4.17 (18:00) 0 0 0 0 0
08-10-2017 29.1 (15:20) 8.3 (00:00) 18.7 6.39 (00:20) 3.61 (16:30) 0 0 0 0 0
07-10-2017 29.7 (15:10) 12.4 (00:00) 21.1 11.67 (07:20) 7.5 (08:40) 0 0 0 0 0
06-10-2017 28.6 (16:30) 12.2 (00:00) 20.4 12.5 (07:50) 7.78 (07:40) 0 0 0 0 0
05-10-2017 26.3 (16:40) 8.1 (00:00) 17.2 4.44 (17:00) 2.5 (13:00) 0 0 0 0 0
04-10-2017 27.2 (16:30) 10.5 (00:00) 18.9 4.44 (15:30) 2.5 (14:30) 0 0 0 0 0
03-10-2017 27.5 (15:10) 9.4 (00:00) 18.4 6.39 (12:10) 4.44 (16:40) 0 0 0 0 0
02-10-2017 29 (17:40) 13.6 (00:00) 21.3 6.11 (17:10) 3.89 (17:10) 0 0 0 0 0
01-10-2017 25.2 (17:20) 14.1 (00:00) 19.7 7.5 (15:20) 5 (15:00) 0 0 0 0 0
30-09-2017 20 (16:10) 12.9 (00:00) 16.4 6.94 (14:00) 3.89 (14:00) 0.2 0 0.2 0 0
29-09-2017 20.4 (18:20) 9.7 (00:00) 15 4.44 (16:50) 2.78 (15:50) 0.4 0 0.2 0.2 0
28-09-2017 24.3 (15:00) 10.7 (00:00) 17.5 7.22 (13:30) 3.89 (13:30) 0 0 0 0 0
27-09-2017 23.6 (14:40) 8.4 (00:00) 16 7.5 (15:00) 3.33 (15:00) 0 0 0 0 0
26-09-2017 22.6 (16:30) 6.8 (00:00) 14.7 6.11 (15:50) 3.89 (17:40) 0.2 0 0 0.2 0
25-09-2017 20.9 (17:10) 10.6 (00:00) 15.8 6.67 (17:50) 4.17 (17:50) 0.4 0 0.4 0 0
24-09-2017 18.9 (13:10) 6.5 (00:00) 12.7 5.83 (13:30) 2.78 (13:30) 2.2 0 0 1.8 0.4
23-09-2017 21.4 (14:30) 8.6 (00:00) 15 7.78 (15:50) 3.89 (00:20) 0.2 0 0 0 0.2
22-09-2017 23.9 (18:20) 12.6 (00:00) 18.3 12.78 (05:00) 7.78 (10:50) 0 0 0 0 0
21-09-2017 17.1 (12:20) 9.7 (00:00) 13.4 8.61 (22:40) 3.61 (17:40) 2.8 0 0 2.6 0.2
20-09-2017 23.4 (16:10) 8 (00:00) 15.7 5.56 (13:20) 3.06 (19:20) 0 0 0 0 0

Gráficas

Temp. máximas Temp. mínimas Temp. medias Precipitaciones Rachas de viento máximas Velocidades máximas media en intervalos de 10 minutos

Datos horarios

Fecha y hora oficial Temperatura (ºC) Velocidad del viento (km/h) Dirección del viento Racha (km/h) Dirección de racha Precipitación (mm) Presión (hPa) Tendencia (hPa) Humedad (%)
2017-10-19 23:00:00 14.4 3 Sudoeste 10 Sudoeste 0.4 -- -- 99
2017-10-19 22:00:00 14.2 3 Oeste 12 Sudoeste 1 -- -- 99
2017-10-19 21:00:00 14 4 Oeste 12 Sudoeste 1.8 -- -- 98
2017-10-19 20:00:00 13.9 6 Sudoeste 17 Oeste 1 -- -- 98
2017-10-19 19:00:00 13.6 4 Oeste 12 Sur 1 -- -- 97
2017-10-19 18:00:00 13.7 3 Sudoeste 18 Sur 0.4 -- -- 97
2017-10-19 17:00:00 13.9 6 Sudoeste 18 Sudoeste 0 -- -- 96
2017-10-19 16:00:00 13.9 6 Sur 29 Sur 0.2 -- -- 97
2017-10-19 15:00:00 13.6 10 Sur 26 Sudoeste 0.2 -- -- 98
2017-10-19 14:00:00 13 6 Sur 16 Sur 0.2 -- -- 99
2017-10-19 13:00:00 11.8 4 Oeste 11 Noroeste 0 -- -- 99
2017-10-19 12:00:00 11.7 3 Oeste 10 Sudoeste 0 -- -- 100
2017-10-19 11:00:00 11 3 Sudoeste 10 Sur 0.2 -- -- 100
2017-10-19 10:00:00 9.9 4 Noroeste 6 Noroeste 0 -- -- 100
2017-10-19 09:00:00 9.4 3 Noroeste 6 Noroeste 0 -- -- 100
2017-10-19 08:00:00 8.7 4 Noroeste 8 Noroeste 0 -- -- 100
2017-10-19 07:00:00 7.9 3 Noroeste 5 Noroeste 0 -- -- 100
2017-10-19 06:00:00 6.9 3 Noroeste 8 Noroeste 0 -- -- 100
2017-10-19 05:00:00 6.2 4 Noroeste 6 Noroeste 0 -- -- 100
2017-10-19 04:00:00 6.2 3 Noroeste 8 Noroeste 0 -- -- 99
2017-10-19 03:00:00 6.2 3 Noroeste 7 Noroeste 0 -- -- 99
2017-10-19 02:00:00 6.7 4 Noroeste 6 Este 0 -- -- 99
2017-10-19 01:00:00 7.3 0 Calma 6 Nordeste 0 -- -- 98
2017-10-19 00:00:00 7.8 4 Noroeste 9 Nordeste 0 -- -- 98
2017-10-18 23:00:00 8.9 3 Norte 8 Nordeste 0 -- -- 97
2017-10-18 22:00:00 10.1 0 Calma 5 Noroeste 0 -- -- 96
2017-10-18 21:00:00 10.8 0 Calma 4 Este 0.2 -- -- 94
2017-10-18 20:00:00 12.4 0 Calma 9 Noroeste 0 -- -- 93
2017-10-18 19:00:00 13 3 Noroeste 8 Noroeste 0.2 -- -- 88
2017-10-18 18:00:00 13.5 5 Noroeste 17 Oeste 0.2 -- -- 81
2017-10-18 17:00:00 14 5 Oeste 17 Oeste 0.2 -- -- 85
2017-10-18 16:00:00 13.6 9 Noroeste 19 Oeste 1.2 -- -- 90
2017-10-18 15:00:00 12.9 0 Calma 15 Oeste 1.6 -- -- 92
2017-10-18 14:00:00 13.5 6 Sudoeste 22 Oeste 1 -- -- 93
2017-10-18 13:00:00 13 9 Sudoeste 20 Sudoeste 0.2 -- -- 94
2017-10-18 12:00:00 12.1 8 Sudoeste 18 Sudoeste 0.2 -- -- 98
2017-10-18 11:00:00 10.7 5 Sur 23 Sudoeste 1.6 -- -- 98
2017-10-18 10:00:00 10.5 4 Sur 10 Sur 0.6 -- -- 98
2017-10-18 09:00:00 9.7 0 Calma 4 Noroeste 0.2 -- -- 98
2017-10-18 08:00:00 9.6 3 Noroeste 5 Sudoeste 0 -- -- 97
2017-10-18 07:00:00 9.8 0 Calma 4 Noroeste 0.2 -- -- 97
2017-10-18 06:00:00 10.7 3 Noroeste 8 Sudoeste 0 -- -- 96
2017-10-18 05:00:00 11 3 Sur 13 Sur 0.2 -- -- 96
2017-10-18 04:00:00 11.2 3 Sudoeste 17 Sudoeste 1 -- -- 96
2017-10-18 03:00:00 11.3 4 Sudoeste 15 Sudoeste 1.4 -- -- 96
2017-10-18 02:00:00 11.5 4 Sur 17 Sudeste 1.8 -- -- 95
2017-10-18 01:00:00 11.7 7 Sur 23 Sur 0.2 -- -- 94
2017-10-18 00:00:00 11.5 7 Sur 26 Sur 0.6 -- -- 95
2017-10-17 23:00:00 11.5 10 Sur 26 Sudeste 1 -- -- 95
2017-10-17 22:00:00 11.6 7 Sur 24 Sur 1.4 -- -- 94
2017-10-17 21:00:00 11.8 9 Sudeste 25 Sur 0.8 -- -- 92
2017-10-17 20:00:00 11.9 7 Sudeste 16 Sudeste 1.2 -- -- 91
2017-10-17 19:00:00 13.1 7 Sur 23 Sudoeste 0 -- -- 84
2017-10-17 18:00:00 15.4 9 Sur 27 Sudoeste 0 -- -- 70
2017-10-17 17:00:00 16.7 13 Sudoeste 28 Sudoeste 0 -- -- 66
2017-10-17 16:00:00 16.5 9 Sur 29 Sudoeste 0 -- -- 68
2017-10-17 15:00:00 17.7 10 Sur 32 Sur 0.2 -- -- 64
2017-10-17 14:00:00 16.3 11 Sur 22 Sudeste 0.2 -- -- 71
2017-10-17 13:00:00 15.1 9 Sur 22 Sudoeste 0.4 -- -- 80
2017-10-17 12:00:00 14.4 8 Sur 19 Sudeste 0 -- -- 86
2017-10-17 11:00:00 12.3 3 Sudeste 8 Sur 0 -- -- 98
2017-10-17 10:00:00 10.7 0 Calma 5 Noroeste 0 -- -- 99
2017-10-17 09:00:00 11 0 Calma 6 Sudoeste 0 -- -- 98
2017-10-17 08:00:00 12 3 Sur 10 Sudoeste 0.2 -- -- 98
2017-10-17 07:00:00 12.4 5 Sudoeste 16 Oeste 0 -- -- 98
2017-10-17 06:00:00 12.9 10 Oeste 21 Oeste 1.2 -- -- 99
2017-10-17 05:00:00 13.4 2 Sudoeste 12 Sudoeste 1.4 -- -- 99
2017-10-17 04:00:00 13.5 0 Calma 8 Sudoeste 2.8 -- -- 99
2017-10-17 03:00:00 13.5 2 Noroeste 7 Sudoeste 5.2 -- -- 99
2017-10-17 02:00:00 13.6 6 Sudoeste 19 Sudoeste 1.4 -- -- 98
2017-10-17 01:00:00 13.8 3 Sudoeste 5 Oeste 0 -- -- 98
2017-10-17 00:00:00 13.6 2 Sur 5 Norte 0.2 -- -- 97
2017-10-16 23:00:00 13.6 0 Calma 6 Norte 0 -- -- 97
2017-10-16 22:00:00 13.6 4 Norte 19 Este 2.4 -- -- 96
2017-10-16 21:00:00 13.5 5 Nordeste 17 Este 0 -- -- 96
2017-10-16 20:00:00 13.5 4 Norte 10 Nordeste 0 -- -- 96
2017-10-16 19:00:00 13.7 2 Norte 10 Este 0 -- -- 93
2017-10-16 18:00:00 14.2 3 Este 8 Noroeste 0 -- -- 90
2017-10-16 17:00:00 14.6 4 Norte 10 Norte 0 -- -- 87
2017-10-16 16:00:00 14.9 6 Norte 18 Norte 0 -- -- 85
2017-10-16 15:00:00 15.2 3 Norte 12 Norte 0 -- -- 83
2017-10-16 14:00:00 15.2 8 Norte 15 Norte 0 -- -- 82
2017-10-16 13:00:00 14 2 Este 6 Nordeste 0 -- -- 88
2017-10-16 12:00:00 13.7 0 Calma 7 Nordeste 0 -- -- 87
2017-10-16 11:00:00 13.8 4 Este 6 Nordeste 0 -- -- 90
2017-10-16 10:00:00 13.9 3 Este 8 Este 0 -- -- 90
2017-10-16 09:00:00 14.5 6 Noroeste 16 Oeste 0 -- -- 89
2017-10-16 08:00:00 15.4 9 Oeste 22 Oeste 0 -- -- 90
2017-10-16 07:00:00 16.1 9 Oeste 29 Oeste 0.2 -- -- 85
2017-10-16 06:00:00 17.8 15 Oeste 31 Oeste 0 -- -- 89
2017-10-16 05:00:00 18.8 14 Oeste 36 Sudoeste 0 -- -- 85
2017-10-16 04:00:00 20 17 Sudoeste 37 Sudoeste 0 -- -- 81
2017-10-16 03:00:00 20.4 12 Sudoeste 41 Sudoeste 0 -- -- 78
2017-10-16 02:00:00 20.7 13 Sudoeste 35 Sudoeste 0 -- -- 67
2017-10-16 01:00:00 22 17 Sur 35 Sur 0 -- -- 52
2017-10-16 00:00:00 23.1 17 Sur 43 Sudoeste 0 -- -- 41
2017-10-15 23:00:00 24.2 21 Sur 50 Sur 0 -- -- 37
2017-10-15 22:00:00 25.3 10 Sur 34 Sur 0 -- -- 34
2017-10-15 21:00:00 25.5 6 Sur 22 Sudoeste 0 -- -- 34
2017-10-15 20:00:00 25.5 6 Sur 16 Sudeste 0 -- -- 36
2017-10-15 19:00:00 27.2 7 Sur 24 Sudoeste 0 -- -- 32
2017-10-15 18:00:00 28 8 Sur 33 Sur 0 -- -- 31
2017-10-15 17:00:00 27.9 12 Sur 26 Sudeste 0 -- -- 32
2017-10-15 16:00:00 28.7 11 Sur 24 Sur 0 -- -- 31
2017-10-15 15:00:00 28.2 9 Sudoeste 20 Oeste 0 -- -- 33
2017-10-15 14:00:00 27.3 7 Sudoeste 26 Sur 0 -- -- 34
2017-10-15 13:00:00 26.7 8 Sudoeste 23 Sudoeste 0 -- -- 34
2017-10-15 12:00:00 26.7 6 Sur 30 Sur 0 -- -- 35
2017-10-15 11:00:00 20.8 4 Sur 11 Sur 0 -- -- 53
2017-10-15 10:00:00 14.2 3 Noroeste 7 Noroeste 0 -- -- 77
2017-10-15 09:00:00 13.5 3 Noroeste 7 Sur 0 -- -- 76
2017-10-15 08:00:00 14.3 0 Calma 5 Este 0 -- -- 71
2017-10-15 07:00:00 15.8 3 Noroeste 14 Sur 0 -- -- 64
2017-10-15 06:00:00 17.1 5 Sur 16 Sur 0 -- -- 58
2017-10-15 05:00:00 15 5 Noroeste 9 Noroeste 0 -- -- 69
2017-10-15 04:00:00 15.1 2 Oeste 6 Noroeste 0 -- -- 71
2017-10-15 03:00:00 15.9 3 Oeste 8 Noroeste 0 -- -- 68
2017-10-15 02:00:00 16.5 2 Noroeste 6 Sudoeste 0 -- -- 64
2017-10-15 01:00:00 16.9 3 Sudoeste 11 Sudeste 0 -- -- 61
2017-10-15 00:00:00 14.4 4 Noroeste 8 Noroeste 0 -- -- 71
2017-10-14 23:00:00 14.3 5 Noroeste 8 Noroeste 0 -- -- 71
2017-10-14 22:00:00 15.4 6 Noroeste 11 Noroeste 0 -- -- 69
2017-10-14 21:00:00 17.4 4 Noroeste 11 Nordeste 0 -- -- 64
2017-10-14 20:00:00 22.4 3 Nordeste 19 Sudeste 0 -- -- 46
2017-10-14 19:00:00 25.3 5 Sur 18 Sudoeste 0 -- -- 39
2017-10-14 18:00:00 26.7 6 Sur 23 Sudoeste 0 -- -- 35
2017-10-14 17:00:00 27.6 9 Sur 32 Sudoeste 0 -- -- 31
2017-10-14 16:00:00 28.1 10 Sudoeste 27 Sudoeste 0 -- -- 30
2017-10-14 15:00:00 26.9 12 Sudoeste 23 Sudoeste 0 -- -- 33
2017-10-14 14:00:00 25.9 11 Sudoeste 23 Sudoeste 0 -- -- 36
2017-10-14 13:00:00 23.8 7 Sudoeste 18 Sudoeste 0 -- -- 46
2017-10-14 12:00:00 19.4 0 Calma 6 Sudoeste 0 -- -- 54
2017-10-14 11:00:00 13.7 0 Calma 8 Noroeste 0 -- -- 73
2017-10-14 10:00:00 9.2 6 Noroeste 9 Noroeste 0 -- -- 85
2017-10-14 09:00:00 6.9 6 Noroeste 9 Noroeste 0 -- -- 90
2017-10-14 08:00:00 6.8 4 Noroeste 8 Norte 0 -- -- 90
2017-10-14 07:00:00 7.3 6 Noroeste 9 Noroeste 0 -- -- 91
2017-10-14 06:00:00 7.4 5 Noroeste 8 Noroeste 0 -- -- 90
2017-10-14 05:00:00 8.9 3 Norte 9 Noroeste 0 -- -- 90
2017-10-14 04:00:00 8.6 5 Noroeste 9 Noroeste 0 -- -- 90
2017-10-14 03:00:00 7.9 6 Noroeste 9 Noroeste 0 -- -- 88
2017-10-14 02:00:00 8.8 4 Noroeste 9 Norte 0 -- -- 86
2017-10-14 01:00:00 8.6 6 Noroeste 10 Noroeste 0 -- -- 88
2017-10-14 00:00:00 9.3 5 Noroeste 14 Norte 0 -- -- 87
2017-10-13 23:00:00 10 5 Norte 13 Nordeste 0 -- -- 85
2017-10-13 22:00:00 12.1 0 Calma 9 Nordeste 0 -- -- 80
2017-10-13 21:00:00 14.2 3 Norte 5 Norte 0 -- -- 71
2017-10-13 20:00:00 18.6 0 Calma 11 Noroeste 0 -- -- 60
2017-10-13 19:00:00 21.1 6 Noroeste 16 Noroeste 0 -- -- 49
2017-10-13 18:00:00 22.7 11 Noroeste 17 Noroeste 0 -- -- 44
2017-10-13 17:00:00 24.1 7 Noroeste 15 Noroeste 0 -- -- 36
2017-10-13 16:00:00 24.4 8 Oeste 19 Sudoeste 0 -- -- 35
2017-10-13 15:00:00 24.2 9 Sudoeste 20 Sudoeste 0 -- -- 37
2017-10-13 14:00:00 23.7 9 Sudoeste 17 Sudoeste 0 -- -- 36
2017-10-13 13:00:00 21.1 6 Sudoeste 9 Sudoeste 0 -- -- 41
2017-10-13 12:00:00 14.4 2 Sur 7 Noroeste 0 -- -- 76
2017-10-13 11:00:00 12 2 Sudeste 8 Norte 0 -- -- 75
2017-10-13 10:00:00 8 5 Noroeste 10 Noroeste 0 -- -- 83
2017-10-13 09:00:00 6.1 4 Norte 10 Noroeste 0 -- -- 87
2017-10-13 08:00:00 7 3 Norte 10 Nordeste 0 -- -- 81
2017-10-13 07:00:00 7.5 4 Norte 10 Noroeste 0 -- -- 79
2017-10-13 06:00:00 7.3 4 Norte 10 Nordeste 0 -- -- 80
2017-10-13 05:00:00 7.6 4 Norte 10 Noroeste 0 -- -- 79
2017-10-13 04:00:00 8.1 5 Norte 12 Nordeste 0 -- -- 77
2017-10-13 03:00:00 8.1 4 Norte 10 Este 0 -- -- 79
2017-10-13 02:00:00 9.1 4 Norte 9 Noroeste 0 -- -- 75
2017-10-13 01:00:00 9.4 6 Norte 12 Noroeste 0 -- -- 76
2017-10-13 00:00:00 10 5 Norte 10 Nordeste 0 -- -- 75
2017-10-12 23:00:00 11.5 6 Norte 10 Norte 0 -- -- 70
2017-10-12 22:00:00 13.6 5 Norte 12 Nordeste 0 -- -- 64
2017-10-12 21:00:00 15.4 4 Noroeste 7 Norte 0 -- -- 64
2017-10-12 20:00:00 20.8 0 Calma 8 Sudoeste 0 -- -- 49
2017-10-12 19:00:00 24.8 4 Sudoeste 13 Sudoeste 0 -- -- 31
2017-10-12 18:00:00 26.3 8 Oeste 18 Oeste 0 -- -- 29
2017-10-12 17:00:00 27.4 7 Sudoeste 19 Oeste 0 -- -- 27
2017-10-12 16:00:00 27 12 Oeste 19 Oeste 0 -- -- 27
2017-10-12 15:00:00 26.5 11 Oeste 20 Sudoeste 0 -- -- 24
2017-10-12 14:00:00 25.8 6 Sudoeste 16 Sudoeste 0 -- -- 30
2017-10-12 13:00:00 23.8 8 Sudoeste 15 Sudoeste 0 -- -- 36
2017-10-12 12:00:00 19.7 0 Calma 4 Sudoeste 0 -- -- 60
2017-10-12 11:00:00 14.8 0 Calma 15 Nordeste 0 -- -- 72
2017-10-12 10:00:00 10.8 5 Norte 19 Nordeste 0 -- -- 77
2017-10-12 09:00:00 9.5 7 Nordeste 20 Nordeste 0 -- -- 84
2017-10-12 08:00:00 9.7 4 Norte 19 Nordeste 0 -- -- 82
2017-10-12 07:00:00 7.9 4 Nordeste 10 Este 0 -- -- 92
2017-10-12 06:00:00 6.2 5 Norte 10 Noroeste 0 -- -- 94
2017-10-12 05:00:00 5.9 5 Noroeste 9 Norte 0 -- -- 95
2017-10-12 04:00:00 6.4 2 Norte 11 Norte 0 -- -- 94
2017-10-12 03:00:00 7.1 5 Norte 10 Nordeste 0 -- -- 92
2017-10-12 02:00:00 7.5 3 Norte 9 Norte 0 -- -- 94
2017-10-12 01:00:00 7.9 5 Noroeste 13 Nordeste 0 -- -- 91
2017-10-12 00:00:00 9.2 3 Norte 12 Nordeste 0 -- -- 90
2017-10-11 23:00:00 10.2 4 Norte 12 Este 0 -- -- 88
2017-10-11 22:00:00 12 3 Nordeste 8 Norte 0 -- -- 87
2017-10-11 21:00:00 14 3 Noroeste 5 Noroeste 0 -- -- 82
2017-10-11 20:00:00 16.7 2 Norte 14 Noroeste 0 -- -- 74
2017-10-11 19:00:00 18.8 10 Noroeste 19 Noroeste 0 -- -- 66
2017-10-11 18:00:00 21.6 7 Oeste 18 Oeste 0 -- -- 52
2017-10-11 17:00:00 22.1 9 Oeste 18 Sudoeste 0 -- -- 50
2017-10-11 16:00:00 21.9 10 Oeste 22 Noroeste 0 -- -- 49
2017-10-11 15:00:00 21.9 8 Oeste 19 Oeste 0 -- -- 47
2017-10-11 14:00:00 21.2 8 Oeste 15 Sudoeste 0 -- -- 47
2017-10-11 13:00:00 20.2 9 Sudoeste 14 Sudoeste 0 -- -- 40
2017-10-11 12:00:00 17.4 4 Sudeste 8 Sur 0 -- -- 46
2017-10-11 11:00:00 11.8 2 Noroeste 6 Noroeste 0 -- -- 61
2017-10-11 10:00:00 7.1 3 Este 9 Noroeste 0 -- -- 73
2017-10-11 09:00:00 3.6 4 Noroeste 8 Noroeste 0 -- -- 82
2017-10-11 08:00:00 3.6 4 Noroeste 9 Noroeste 0 -- -- 83
2017-10-11 07:00:00 4.2 5 Noroeste 10 Noroeste 0 -- -- 78
2017-10-11 06:00:00 5.1 4 Nordeste 16 Noroeste 0 -- -- 73
2017-10-11 05:00:00 5.4 2 Norte 8 Noroeste 0 -- -- 73
2017-10-11 04:00:00 6.5 4 Noroeste 10 Noroeste 0 -- -- 67
2017-10-11 03:00:00 6.1 7 Noroeste 10 Noroeste 0 -- -- 72
2017-10-11 02:00:00 6.6 5 Noroeste 10 Nordeste 0 -- -- 72
2017-10-11 01:00:00 7.2 4 Norte 10 Norte 0 -- -- 71
2017-10-11 00:00:00 8.5 6 Norte 14 Norte 0 -- -- 67
2017-10-10 23:00:00 10.2 5 Norte 13 Nordeste 0 -- -- 56
2017-10-10 22:00:00 12.2 5 Nordeste 14 Nordeste 0 -- -- 55
2017-10-10 21:00:00 14.1 4 Norte 6 Norte 0 -- -- 56
2017-10-10 20:00:00 20.4 0 Calma 10 Noroeste 0 -- -- 39
2017-10-10 19:00:00 24.8 7 Noroeste 14 Norte 0 -- -- 19
2017-10-10 18:00:00 27 9 Noroeste 17 Oeste 0 -- -- 23
2017-10-10 17:00:00 28.5 9 Oeste 18 Oeste 0 -- -- 23
2017-10-10 16:00:00 28.9 10 Sudoeste 19 Sudoeste 0 -- -- 21
2017-10-10 15:00:00 28.8 9 Sudoeste 15 Sudoeste 0 -- -- 18
2017-10-10 14:00:00 27.5 7 Sudoeste 13 Sudoeste 0 -- -- 20
2017-10-10 13:00:00 24.8 7 Sudoeste 13 Sudoeste 0 -- -- 31
2017-10-10 12:00:00 20.6 0 Calma 3 Noroeste 0 -- -- 40
2017-10-10 11:00:00 15.1 4 Noroeste 9 Noroeste 0 -- -- 52
2017-10-10 10:00:00 9.2 5 Norte 12 Nordeste 0 -- -- 63
2017-10-10 09:00:00 5.6 5 Norte 13 Norte 0 -- -- 71
2017-10-10 08:00:00 6 5 Norte 13 Nordeste 0 -- -- 69
2017-10-10 07:00:00 6.4 5 Norte 13 Nordeste 0 -- -- 67
2017-10-10 06:00:00 7.7 6 Norte 12 Nordeste 0 -- -- 63
2017-10-10 05:00:00 7.9 5 Nordeste 15 Nordeste 0 -- -- 62
2017-10-10 04:00:00 7.9 8 Nordeste 18 Nordeste 0 -- -- 67
2017-10-10 03:00:00 7.2 7 Noroeste 12 Norte 0 -- -- 69
2017-10-10 02:00:00 8.3 4 Norte 13 Nordeste 0 -- -- 65
2017-10-10 01:00:00 8.7 6 Nordeste 19 Nordeste 0 -- -- 67
2017-10-10 00:00:00 10.7 4 Norte 16 Nordeste 0 -- -- 62
2017-10-09 23:00:00 11 5 Nordeste 11 Nordeste 0 -- -- 68
2017-10-09 22:00:00 14.2 5 Norte 16 Este 0 -- -- 62
2017-10-09 21:00:00 18.9 9 Nordeste 15 Nordeste 0 -- -- 47
2017-10-09 20:00:00 21.6 0 Calma 4 Sudeste 0 -- -- 49
2017-10-09 19:00:00 25.3 4 Sudoeste 19 Noroeste 0 -- -- 38
2017-10-09 18:00:00 26.8 15 Noroeste 21 Noroeste 0 -- -- 32
2017-10-09 17:00:00 27 12 Noroeste 19 Noroeste 0 -- -- 33
2017-10-09 16:00:00 27.5 9 Noroeste 15 Oeste 0 -- -- 27
2017-10-09 15:00:00 27.8 8 Sudoeste 17 Sur 0 -- -- 32
2017-10-09 14:00:00 26.4 8 Sudoeste 14 Sudoeste 0 -- -- 32
2017-10-09 13:00:00 23.9 8 Sudoeste 13 Sudoeste 0 -- -- 36
2017-10-09 12:00:00 21.6 2 Sudoeste 11 Nordeste 0 -- -- 48
2017-10-09 11:00:00 17.4 4 Norte 20 Este 0 -- -- 58
2017-10-09 10:00:00 13.4 6 Nordeste 18 Nordeste 0 -- -- 60
2017-10-09 09:00:00 7.9 7 Nordeste 17 Nordeste 0 -- -- 71
2017-10-09 08:00:00 6.6 4 Norte 11 Norte 0 -- -- 76
2017-10-09 07:00:00 6.4 5 Norte 13 Nordeste 0 -- -- 79
2017-10-09 06:00:00 7.6 5 Norte 10 Nordeste 0 -- -- 76
2017-10-09 05:00:00 8.3 3 Norte 11 Nordeste 0 -- -- 74
2017-10-09 04:00:00 8.2 5 Norte 15 Nordeste 0 -- -- 78
2017-10-09 03:00:00 8.9 6 Nordeste 16 Nordeste 0 -- -- 83
2017-10-09 02:00:00 10.8 8 Norte 14 Norte 0 -- -- 76
2017-10-09 01:00:00 10.8 6 Norte 9 Norte 0 -- -- 76
2017-10-09 00:00:00 11 5 Norte 17 Norte 0 -- -- 77
2017-10-08 23:00:00 10.8 6 Norte 11 Norte 0 -- -- 80
2017-10-08 22:00:00 13.1 3 Noroeste 6 Noroeste 0 -- -- 70
2017-10-08 21:00:00 15.9 4 Norte 9 Nordeste 0 -- -- 63
2017-10-08 20:00:00 23 0 Calma 10 Noroeste 0 -- -- 38
2017-10-08 19:00:00 26.1 7 Noroeste 14 Noroeste 0 -- -- 23
2017-10-08 18:00:00 27.8 10 Noroeste 15 Noroeste 0 -- -- 24
2017-10-08 17:00:00 28.3 11 Noroeste 19 Noroeste 0 -- -- 25
2017-10-08 16:00:00 28.4 10 Noroeste 22 Noroeste 0 -- -- 27
2017-10-08 15:00:00 28.7 8 Sudoeste 20 Sudoeste 0 -- -- 28
2017-10-08 14:00:00 27.4 9 Oeste 18 Sudoeste 0 -- -- 27
2017-10-08 13:00:00 26.3 6 Sudoeste 13 Sudoeste 0 -- -- 34
2017-10-08 12:00:00 23.4 2 Noroeste 9 Nordeste 0 -- -- 46
2017-10-08 11:00:00 19.2 4 Nordeste 10 Nordeste 0 -- -- 57
2017-10-08 10:00:00 14.4 6 Noroeste 13 Nordeste 0 -- -- 68
2017-10-08 09:00:00 10.6 6 Norte 13 Nordeste 0 -- -- 75
2017-10-08 08:00:00 9.8 8 Norte 19 Este 0 -- -- 77
2017-10-08 07:00:00 11.2 6 Norte 18 Nordeste 0 -- -- 72
2017-10-08 06:00:00 8.3 6 Noroeste 11 Noroeste 0 -- -- 79
2017-10-08 05:00:00 9.5 6 Noroeste 14 Norte 0 -- -- 77
2017-10-08 04:00:00 11.4 7 Nordeste 17 Nordeste 0 -- -- 73
2017-10-08 03:00:00 11.2 6 Norte 17 Este 0 -- -- 71
2017-10-08 02:00:00 13.5 8 Nordeste 21 Nordeste 0 -- -- 63
2017-10-08 01:00:00 14 9 Nordeste 23 Nordeste 0 -- -- 65
2017-10-08 00:00:00 13.4 6 Nordeste 14 Nordeste 0 -- -- 70
2017-10-07 23:00:00 14.4 6 Nordeste 15 Nordeste 0 -- -- 70
2017-10-07 22:00:00 14.8 5 Norte 10 Norte 0 -- -- 79
2017-10-07 21:00:00 17.5 3 Noroeste 5 Noroeste 0 -- -- 73
2017-10-07 20:00:00 23.3 0 Calma 8 Noroeste 0 -- -- 48
2017-10-07 19:00:00 25.8 5 Noroeste 13 Noroeste 0 -- -- 43
2017-10-07 18:00:00 27.2 9 Noroeste 22 Noroeste 0 -- -- 40
2017-10-07 17:00:00 28.1 12 Noroeste 19 Noroeste 0 -- -- 38
2017-10-07 16:00:00 29.2 8 Oeste 24 Sudoeste 0 -- -- 31
2017-10-07 15:00:00 29.5 3 Noroeste 19 Este 0 -- -- 23
2017-10-07 14:00:00 27.4 13 Este 21 Este 0 -- -- 27
2017-10-07 13:00:00 24.7 12 Este 24 Este 0 -- -- 38
2017-10-07 12:00:00 22.2 15 Este 33 Este 0 -- -- 43
2017-10-07 11:00:00 20.7 17 Este 31 Este 0 -- -- 49
2017-10-07 10:00:00 19.6 20 Este 39 Este 0 -- -- 49
2017-10-07 09:00:00 18.4 25 Este 42 Este 0 -- -- 54
2017-10-07 08:00:00 18.6 23 Este 42 Este 0 -- -- 53
2017-10-07 07:00:00 18.9 22 Este 40 Este 0 -- -- 55
2017-10-07 06:00:00 19.6 23 Este 39 Este 0 -- -- 58
2017-10-07 05:00:00 20.6 18 Este 32 Este 0 -- -- 54
2017-10-07 04:00:00 20.4 12 Este 40 Este 0 -- -- 56
2017-10-07 03:00:00 20.9 23 Este 39 Este 0 -- -- 53
2017-10-07 02:00:00 20.9 23 Este 37 Este 0 -- -- 54
2017-10-07 01:00:00 21.3 21 Este 35 Este 0 -- -- 53
2017-10-07 00:00:00 21.1 8 Nordeste 24 Este 0 -- -- 54
2017-10-06 23:00:00 21.2 8 Este 22 Este 0 -- -- 54
2017-10-06 22:00:00 21.2 13 Este 28 Este 0 -- -- 53
2017-10-06 21:00:00 21.5 14 Este 26 Este 0 -- -- 56
2017-10-06 20:00:00 24.7 6 Este 15 Este 0 -- -- 49
2017-10-06 19:00:00 27.5 8 Este 18 Este 0 -- -- 38
2017-10-06 18:00:00 28.4 9 Este 25 Este 0 -- -- 35
2017-10-06 17:00:00 28.4 13 Este 21 Este 0 -- -- 31
2017-10-06 16:00:00 28.2 10 Este 22 Este 0 -- -- 38
2017-10-06 15:00:00 27.1 14 Este 29 Este 0 -- -- 40
2017-10-06 14:00:00 25.3 14 Este 34 Este 0 -- -- 43
2017-10-06 13:00:00 23 15 Este 40 Este 0 -- -- 52
2017-10-06 12:00:00 20.8 24 Este 44 Este 0 -- -- 61
2017-10-06 11:00:00 18.7 24 Este 41 Este 0 -- -- 69
2017-10-06 10:00:00 17.3 26 Este 42 Este 0 -- -- 73
2017-10-06 09:00:00 16.5 22 Este 41 Este 0 -- -- 78
2017-10-06 08:00:00 15.5 26 Este 45 Este 0 -- -- 83
2017-10-06 07:00:00 16.4 23 Este 42 Este 0 -- -- 79
2017-10-06 06:00:00 16.4 23 Este 39 Este 0 -- -- 78
2017-10-06 05:00:00 16 14 Este 34 Este 0 -- -- 82
2017-10-06 04:00:00 17.1 18 Este 31 Este 0 -- -- 79
2017-10-06 03:00:00 16.3 12 Nordeste 25 Este 0 -- -- 82
2017-10-06 02:00:00 12.2 9 Noroeste 17 Este 0 -- -- 90
2017-10-06 01:00:00 14.9 6 Este 19 Este 0 -- -- 82
2017-10-06 00:00:00 13.8 6 Norte 12 Noroeste 0 -- -- 92
2017-10-05 23:00:00 15.2 5 Norte 10 Nordeste 0 -- -- 94
2017-10-05 22:00:00 15.9 4 Nordeste 9 Nordeste 0 -- -- 90
2017-10-05 21:00:00 18.2 4 Noroeste 8 Noroeste 0 -- -- 88
2017-10-05 20:00:00 21 2 Sur 9 Sudoeste 0 -- -- 76
2017-10-05 19:00:00 23.6 5 Sudoeste 14 Sudoeste 0 -- -- 67
2017-10-05 18:00:00 25.1 8 Sudoeste 15 Sudoeste 0 -- -- 62
2017-10-05 17:00:00 25.9 9 Sudoeste 16 Sudoeste 0 -- -- 60
2017-10-05 16:00:00 26 8 Sudoeste 15 Sudoeste 0 -- -- 61
2017-10-05 15:00:00 24.4 8 Sudoeste 15 Oeste 0 -- -- 63
2017-10-05 14:00:00 23.1 9 Sudoeste 15 Sur 0 -- -- 67
2017-10-05 13:00:00 21.2 9 Sudoeste 15 Sudoeste 0 -- -- 72
2017-10-05 12:00:00 19.7 7 Sudoeste 11 Sudoeste 0 -- -- 76
2017-10-05 11:00:00 15.6 2 Noroeste 5 Noroeste 0 -- -- 91
2017-10-05 10:00:00 11.6 0 Calma 9 Noroeste 0 -- -- 99
2017-10-05 09:00:00 8.3 2 Noroeste 4 Noroeste 0 -- -- 96
2017-10-05 08:00:00 8.4 2 Norte 8 Norte 0 -- -- 97
2017-10-05 07:00:00 8.5 3 Norte 6 Norte 0 -- -- 96
2017-10-05 06:00:00 8.9 2 Noroeste 6 Noroeste 0 -- -- 96
2017-10-05 05:00:00 9.4 0 Calma 5 Norte 0 -- -- 95
2017-10-05 04:00:00 9.7 4 Noroeste 14 Norte 0 -- -- 94
2017-10-05 03:00:00 10.4 3 Norte 9 Nordeste 0 -- -- 92
2017-10-05 02:00:00 10.7 3 Noroeste 6 Noroeste 0 -- -- 92
2017-10-05 01:00:00 11.9 2 Norte 5 Noroeste 0 -- -- 91
2017-10-05 00:00:00 12.6 3 Nordeste 9 Nordeste 0 -- -- 90
2017-10-04 23:00:00 13.9 3 Norte 8 Nordeste 0 -- -- 90
2017-10-04 22:00:00 15.6 0 Calma 6 Noroeste 0 -- -- 88
2017-10-04 21:00:00 18.4 2 Noroeste 5 Sudoeste 0 -- -- 80
2017-10-04 20:00:00 21.8 3 Sur 12 Sudoeste 0 -- -- 69
2017-10-04 19:00:00 24.9 5 Sudoeste 15 Sudoeste 0 -- -- 56
2017-10-04 18:00:00 26.5 8 Sudoeste 16 Sudoeste 0 -- -- 52
2017-10-04 17:00:00 26.5 8 Noroeste 15 Sudoeste 0 -- -- 49
2017-10-04 16:00:00 26.8 6 Oeste 16 Oeste 0 -- -- 48
2017-10-04 15:00:00 26.6 7 Sudoeste 15 Sudoeste 0 -- -- 48
2017-10-04 14:00:00 24.9 6 Oeste 14 Sudoeste 0 -- -- 54
2017-10-04 13:00:00 22.7 7 Sudoeste 12 Sudoeste 0 -- -- 64
2017-10-04 12:00:00 20.2 5 Sudoeste 10 Sudoeste 0 -- -- 76
2017-10-04 11:00:00 17.5 0 Calma 8 Noroeste 0 -- -- 86
2017-10-04 10:00:00 14.1 5 Norte 8 Norte 0 -- -- 95
2017-10-04 09:00:00 12.1 6 Noroeste 10 Noroeste 0 -- -- 96
2017-10-04 08:00:00 11.4 5 Norte 12 Este 0 -- -- 97
2017-10-04 07:00:00 10.5 3 Norte 10 Nordeste 0 -- -- 96
2017-10-04 06:00:00 11.1 0 Calma 3 Oeste 0 -- -- 96
2017-10-04 05:00:00 11.7 3 Norte 8 Noroeste 0 -- -- 96
2017-10-04 04:00:00 12 4 Noroeste 8 Noroeste 0 -- -- 95
2017-10-04 03:00:00 12.6 4 Noroeste 9 Noroeste 0 -- -- 95
2017-10-04 02:00:00 13.2 6 Noroeste 10 Noroeste 0 -- -- 94
2017-10-04 01:00:00 13.7 7 Norte 14 Norte 0 -- -- 93
2017-10-04 00:00:00 14.7 7 Norte 14 Norte 0 -- -- 89
2017-10-03 23:00:00 16.9 8 Norte 17 Norte 0 -- -- 84
2017-10-03 22:00:00 18.1 4 Norte 10 Nordeste 0 -- -- 82
2017-10-03 21:00:00 19.2 3 Nordeste 9 Noroeste 0 -- -- 78
2017-10-03 20:00:00 21.6 6 Noroeste 15 Noroeste 0 -- -- 69
2017-10-03 19:00:00 24.8 8 Noroeste 21 Noroeste 0 -- -- 56
2017-10-03 18:00:00 25.8 11 Noroeste 19 Noroeste 0 -- -- 53
2017-10-03 17:00:00 26.1 13 Noroeste 21 Noroeste 0 -- -- 54
2017-10-03 16:00:00 26.9 12 Noroeste 18 Sudoeste 0 -- -- 50
2017-10-03 15:00:00 27.3 9 Sudoeste 17 Sudoeste 0 -- -- 51
2017-10-03 14:00:00 25.9 9 Sudoeste 16 Oeste 0 -- -- 56
2017-10-03 13:00:00 23.6 3 Sur 23 Este 0 -- -- 63
2017-10-03 12:00:00 21.7 12 Este 22 Este 0 -- -- 68
2017-10-03 11:00:00 19 13 Nordeste 22 Este 0 -- -- 78
2017-10-03 10:00:00 14.3 5 Norte 15 Nordeste 0 -- -- 86
2017-10-03 09:00:00 9.4 5 Norte 9 Noroeste 0 -- -- 92
2017-10-03 08:00:00 10.4 5 Noroeste 12 Norte 0 -- -- 92
2017-10-03 07:00:00 10.5 6 Norte 15 Nordeste 0 -- -- 93
2017-10-03 06:00:00 10.3 5 Noroeste 11 Nordeste 0 -- -- 94
2017-10-03 05:00:00 11.3 6 Norte 10 Nordeste 0 -- -- 92
2017-10-03 04:00:00 11.5 5 Norte 14 Norte 0 -- -- 90
2017-10-03 03:00:00 12.3 5 Norte 11 Norte 0 -- -- 91
2017-10-03 02:00:00 14.4 5 Norte 12 Nordeste 0 -- -- 87
2017-10-03 01:00:00 17.2 8 Nordeste 15 Nordeste 0 -- -- 78
2017-10-03 00:00:00 16.7 4 Nordeste 10 Nordeste 0 -- -- 93
2017-10-02 23:00:00 18 5 Nordeste 9 Nordeste 0 -- -- 89
2017-10-02 22:00:00 19.3 0 Calma 5 Nordeste 0 -- -- 85
2017-10-02 21:00:00 22.3 0 Calma 7 Noroeste 0 -- -- 77
2017-10-02 20:00:00 25 4 Noroeste 17 Noroeste 0 -- -- 67
2017-10-02 19:00:00 27.1 9 Noroeste 22 Noroeste 0 -- -- 59
2017-10-02 18:00:00 28.9 11 Noroeste 22 Oeste 0 -- -- 54
2017-10-02 17:00:00 28.8 12 Noroeste 21 Noroeste 0 -- -- 55
2017-10-02 16:00:00 28.6 10 Noroeste 17 Noroeste 0 -- -- 55
2017-10-02 15:00:00 28.3 8 Noroeste 17 Sudoeste 0 -- -- 56
2017-10-02 14:00:00 28.1 5 Este 18 Este 0 -- -- 54
2017-10-02 13:00:00 25.9 9 Este 19 Este 0 -- -- 60
2017-10-02 12:00:00 24.4 11 Este 21 Este 0 -- -- 65
2017-10-02 11:00:00 23.2 7 Este 19 Este 0 -- -- 69
2017-10-02 10:00:00 21.2 7 Este 19 Este 0 -- -- 71
2017-10-02 09:00:00 19 12 Este 21 Este 0 -- -- 76
2017-10-02 08:00:00 16.4 6 Norte 12 Nordeste 0 -- -- 85
2017-10-02 07:00:00 14.1 4 Norte 13 Nordeste 0 -- -- 90
2017-10-02 06:00:00 15.7 5 Nordeste 17 Este 0 -- -- 81
2017-10-02 05:00:00 16.9 8 Este 14 Este 0 -- -- 74
2017-10-02 04:00:00 14 5 Norte 13 Nordeste 0 -- -- 90
2017-10-02 03:00:00 14.1 6 Nordeste 12 Nordeste 0 -- -- 90
2017-10-02 02:00:00 14.1 4 Norte 9 Nordeste 0 -- -- 91
2017-10-02 01:00:00 16.4 4 Noroeste 13 Nordeste 0 -- -- 86
2017-10-02 00:00:00 18.5 6 Este 15 Este 0 -- -- 79
2017-10-01 23:00:00 18.1 6 Norte 15 Nordeste 0 -- -- 83
2017-10-01 22:00:00 18.1 8 Nordeste 12 Nordeste 0 -- -- 82
2017-10-01 21:00:00 19.8 4 Nordeste 8 Nordeste 0 -- -- 76
2017-10-01 20:00:00 21.6 7 Noroeste 19 Noroeste 0 -- -- 73
2017-10-01 19:00:00 24.1 13 Noroeste 21 Noroeste 0 -- -- 62
2017-10-01 18:00:00 24.8 15 Noroeste 24 Noroeste 0 -- -- 59
2017-10-01 17:00:00 25 13 Noroeste 23 Norte 0 -- -- 58
2017-10-01 16:00:00 24.6 13 Noroeste 27 Norte 0 -- -- 58
2017-10-01 15:00:00 23.7 18 Noroeste 25 Noroeste 0 -- -- 61
2017-10-01 14:00:00 22.4 9 Norte 19 Nordeste 0 -- -- 65
2017-10-01 13:00:00 20.5 6 Norte 18 Noroeste 0 -- -- 77
2017-10-01 12:00:00 19.5 13 Noroeste 19 Noroeste 0 -- -- 80
2017-10-01 11:00:00 18.2 6 Este 23 Este 0 -- -- 84
2017-10-01 10:00:00 16 9 Este 20 Este 0 -- -- 95
2017-10-01 09:00:00 14.9 2 Nordeste 12 Norte 0 -- -- 96
2017-10-01 08:00:00 15.1 0 Calma 6 Nordeste 0 -- -- 94
2017-10-01 07:00:00 15.7 3 Norte 8 Noroeste 0 -- -- 94
2017-10-01 06:00:00 15.2 3 Nordeste 6 Norte 0 -- -- 96
2017-10-01 05:00:00 14.8 0 Calma 5 Noroeste 0 -- -- 94
2017-10-01 04:00:00 14.6 4 Noroeste 6 Noroeste 0 -- -- 93
2017-10-01 03:00:00 14.5 0 Calma 5 Noroeste 0 -- -- 94
2017-10-01 02:00:00 14.1 0 Calma 6 Norte 0 -- -- 93
2017-10-01 01:00:00 14.5 0 Calma 4 Noroeste 0 -- -- 90
2017-10-01 00:00:00 15.1 0 Calma 4 Noroeste 0 -- -- 87
2017-09-30 23:00:00 15.7 0 Calma 5 Noroeste 0 -- -- 85
2017-09-30 22:00:00 15.9 0 Calma 6 Noroeste 0 -- -- 82
2017-09-30 21:00:00 16.1 6 Noroeste 10 Noroeste 0 -- -- 80
2017-09-30 20:00:00 16.8 5 Noroeste 14 Noroeste 0 -- -- 77
2017-09-30 19:00:00 17.6 9 Noroeste 21 Noroeste 0 -- -- 72
2017-09-30 18:00:00 19.3 11 Noroeste 17 Noroeste 0 -- -- 63
2017-09-30 17:00:00 19.5 7 Noroeste 21 Norte 0 -- -- 59
2017-09-30 16:00:00 19.9 8 Noroeste 22 Noroeste 0 -- -- 57
2017-09-30 15:00:00 19.4 12 Noroeste 23 Noroeste 0 -- -- 54
2017-09-30 14:00:00 18.5 14 Noroeste 25 Noroeste 0 -- -- 59
2017-09-30 13:00:00 17.8 7 Nordeste 19 Noroeste 0 -- -- 66
2017-09-30 12:00:00 16.4 11 Norte 19 Norte 0 -- -- 71
2017-09-30 11:00:00 14.8 0 Calma 6 Este 0.2 -- -- 86
2017-09-30 10:00:00 13.2 2 Norte 5 Noroeste 0 -- -- 98
2017-09-30 09:00:00 12.9 2 Noroeste 5 Noroeste 0 -- -- 99
2017-09-30 08:00:00 13.2 0 Calma 5 Sudoeste 0 -- -- 98
2017-09-30 07:00:00 13.6 2 Norte 6 Noroeste 0 -- -- 97
2017-09-30 06:00:00 14.1 0 Calma 12 Noroeste 0 -- -- 97
2017-09-30 05:00:00 14.4 3 Noroeste 6 Noroeste 0 -- -- 99
2017-09-30 04:00:00 14.6 2 Noroeste 6 Oeste 0 -- -- 99
2017-09-30 03:00:00 14.9 3 Oeste 8 Noroeste 0 -- -- 98
2017-09-30 02:00:00 15.2 3 Noroeste 5 Noroeste 0 -- -- 97
2017-09-30 01:00:00 15.5 3 Oeste 5 Oeste 0 -- -- 97
2017-09-30 00:00:00 15.9 2 Sudoeste 7 Sudoeste 0 -- -- 96
2017-09-29 23:00:00 16.1 0 Calma 4 Noroeste 0 -- -- 95
2017-09-29 22:00:00 16.2 0 Calma 6 Norte 0 -- -- 94
2017-09-29 21:00:00 16.5 0 Calma 6 Noroeste 0 -- -- 91
2017-09-29 20:00:00 18.4 0 Calma 9 Sur 0 -- -- 83
2017-09-29 19:00:00 19.6 5 Noroeste 12 Noroeste 0 -- -- 76
2017-09-29 18:00:00 19.9 8 Noroeste 15 Noroeste 0 -- -- 72
2017-09-29 17:00:00 19.8 7 Oeste 16 Oeste 0.2 -- -- 79
2017-09-29 16:00:00 19.7 8 Oeste 15 Oeste 0 -- -- 83
2017-09-29 15:00:00 19.4 3 Sudeste 9 Sudeste 0 -- -- 88
2017-09-29 14:00:00 17.8 3 Oeste 8 Sudoeste 0 -- -- 97
2017-09-29 13:00:00 16.7 5 Sudoeste 9 Sudoeste 0 -- -- 99
2017-09-29 12:00:00 16 0 Calma 4 Sudeste 0 -- -- 99
2017-09-29 11:00:00 14.9 0 Calma 6 Noroeste 0.2 -- -- 99
2017-09-29 10:00:00 13.8 4 Noroeste 5 Noroeste 0 -- -- 98
2017-09-29 09:00:00 13 3 Noroeste 5 Noroeste 0 -- -- 97
2017-09-29 08:00:00 12.2 3 Noroeste 10 Noroeste 0 -- -- 97
2017-09-29 07:00:00 10.9 4 Noroeste 10 Noroeste 0 -- -- 97
2017-09-29 06:00:00 9.9 5 Noroeste 10 Noroeste 0 -- -- 97
2017-09-29 05:00:00 9.8 4 Noroeste 8 Noroeste 0 -- -- 96
2017-09-29 04:00:00 9.9 5 Noroeste 10 Noroeste 0 -- -- 96
2017-09-29 03:00:00 10.1 5 Noroeste 8 Noroeste 0 -- -- 96
2017-09-29 02:00:00 10.4 2 Norte 8 Noroeste 0 -- -- 96
2017-09-29 01:00:00 11.1 3 Noroeste 8 Noroeste 0 -- -- 95
2017-09-29 00:00:00 11.9 3 Norte 7 Noroeste 0 -- -- 94
2017-09-28 23:00:00 12.7 2 Noroeste 5 Noroeste 0 -- -- 92
2017-09-28 22:00:00 14.7 0 Calma 3 Noroeste 0 -- -- 87
2017-09-28 21:00:00 16.9 0 Calma 10 Sur 0 -- -- 80
2017-09-28 20:00:00 19.3 6 Sur 15 Sudoeste 0 -- -- 69
2017-09-28 19:00:00 21.9 9 Sudoeste 18 Sudoeste 0 -- -- 63
2017-09-28 18:00:00 23 7 Sudoeste 21 Sudoeste 0 -- -- 61
2017-09-28 17:00:00 23.3 11 Oeste 22 Oeste 0 -- -- 64
2017-09-28 16:00:00 23.6 12 Oeste 22 Oeste 0 -- -- 61
2017-09-28 15:00:00 24.3 8 Sudoeste 24 Sudoeste 0 -- -- 59
2017-09-28 14:00:00 22.8 8 Sudoeste 26 Sudoeste 0 -- -- 63
2017-09-28 13:00:00 21.2 10 Sudoeste 23 Sudoeste 0 -- -- 70
2017-09-28 12:00:00 19.8 8 Sudoeste 19 Sudoeste 0 -- -- 78
2017-09-28 11:00:00 18.1 9 Sur 17 Sur 0 -- -- 92
2017-09-28 10:00:00 15 3 Noroeste 6 Norte 0 -- -- 99
2017-09-28 09:00:00 13.4 0 Calma 5 Noroeste 0 -- -- 100
2017-09-28 08:00:00 12.8 0 Calma 3 Noroeste 0 -- -- 99
2017-09-28 07:00:00 12.5 2 Noroeste 5 Noroeste 0 -- -- 99
2017-09-28 06:00:00 11.6 3 Noroeste 5 Noroeste 0 -- -- 99
2017-09-28 05:00:00 10.7 4 Noroeste 5 Noroeste 0 -- -- 98
2017-09-28 04:00:00 11.2 2 Noroeste 6 Noroeste 0 -- -- 98
2017-09-28 03:00:00 11.7 0 Calma 5 Noroeste 0 -- -- 97
2017-09-28 02:00:00 12 3 Noroeste 8 Noroeste 0 -- -- 97
2017-09-28 01:00:00 12.6 3 Noroeste 6 Noroeste 0 -- -- 96
2017-09-28 00:00:00 12.8 3 Noroeste 5 Noroeste 0 -- -- 96
2017-09-27 23:00:00 13.9 0 Calma 5 Noroeste 0 -- -- 95
2017-09-27 22:00:00 15.2 2 Norte 5 Noroeste 0 -- -- 93
2017-09-27 21:00:00 16.9 0 Calma 3 Este 0 -- -- 89
2017-09-27 20:00:00 18.3 3 Noroeste 14 Noroeste 0 -- -- 85
2017-09-27 19:00:00 19.6 10 Noroeste 19 Noroeste 0 -- -- 79
2017-09-27 18:00:00 21.5 3 Sur 16 Oeste 0 -- -- 75
2017-09-27 17:00:00 21 10 Oeste 20 Sudoeste 0 -- -- 73
2017-09-27 16:00:00 22.6 10 Sudoeste 20 Oeste 0 -- -- 66
2017-09-27 15:00:00 23.3 12 Oeste 27 Oeste 0 -- -- 62
2017-09-27 14:00:00 23.2 8 Sudoeste 19 Sudoeste 0 -- -- 63
2017-09-27 13:00:00 21.2 6 Sudoeste 17 Sudoeste 0 -- -- 71
2017-09-27 12:00:00 19.5 3 Oeste 9 Sudoeste 0 -- -- 81
2017-09-27 11:00:00 17.4 4 Nordeste 12 Nordeste 0 -- -- 87
2017-09-27 10:00:00 15.2 6 Nordeste 10 Nordeste 0 -- -- 91
2017-09-27 09:00:00 13.2 2 Noroeste 9 Norte 0 -- -- 91
2017-09-27 08:00:00 12.1 5 Noroeste 8 Noroeste 0 -- -- 90
2017-09-27 07:00:00 11.3 4 Noroeste 10 Noroeste 0 -- -- 90
2017-09-27 06:00:00 10.4 5 Norte 9 Noroeste 0 -- -- 92
2017-09-27 05:00:00 8.5 3 Nordeste 8 Noroeste 0 -- -- 95
2017-09-27 04:00:00 8.9 6 Noroeste 9 Noroeste 0 -- -- 93
2017-09-27 03:00:00 9.3 0 Calma 9 Norte 0 -- -- 92
2017-09-27 02:00:00 10 5 Norte 10 Noroeste 0 -- -- 90
2017-09-27 01:00:00 10.3 2 Noroeste 9 Nordeste 0 -- -- 88
2017-09-27 00:00:00 11 4 Norte 12 Nordeste 0 -- -- 87
2017-09-26 23:00:00 11.6 3 Noroeste 9 Este 0 -- -- 86
2017-09-26 22:00:00 12.5 0 Calma 8 Noroeste 0 -- -- 87
2017-09-26 21:00:00 14.6 4 Noroeste 6 Noroeste 0 -- -- 80
2017-09-26 20:00:00 18 2 Norte 12 Noroeste 0 -- -- 65
2017-09-26 19:00:00 20.2 8 Noroeste 15 Noroeste 0 -- -- 60
2017-09-26 18:00:00 20.8 10 Noroeste 21 Noroeste 0 -- -- 58
2017-09-26 17:00:00 22 10 Noroeste 20 Noroeste 0 -- -- 57
2017-09-26 16:00:00 22.1 8 Oeste 22 Oeste 0 -- -- 51
2017-09-26 15:00:00 21 8 Sudoeste 19 Oeste 0 -- -- 55
2017-09-26 14:00:00 20.2 5 Oeste 17 Sudoeste 0 -- -- 59
2017-09-26 13:00:00 18.8 10 Oeste 15 Oeste 0.2 -- -- 62
2017-09-26 12:00:00 17.2 7 Sudoeste 11 Sudoeste 0 -- -- 75
2017-09-26 11:00:00 14.3 0 Calma 6 Noroeste 0 -- -- 94
2017-09-26 10:00:00 10 3 Noroeste 6 Noroeste 0 -- -- 99
2017-09-26 09:00:00 8 4 Noroeste 9 Norte 0 -- -- 100
2017-09-26 08:00:00 8.3 4 Norte 9 Noroeste 0 -- -- 98
2017-09-26 07:00:00 8.4 6 Norte 11 Nordeste 0 -- -- 100
2017-09-26 06:00:00 6.9 3 Norte 6 Nordeste 0 -- -- 97
2017-09-26 05:00:00 7.2 4 Norte 8 Norte 0 -- -- 98
2017-09-26 04:00:00 7.5 4 Noroeste 7 Noroeste 0 -- -- 98
2017-09-26 03:00:00 7.7 0 Calma 6 Norte 0 -- -- 97
2017-09-26 02:00:00 8.6 0 Calma 5 Noroeste 0 -- -- 96
2017-09-26 01:00:00 9.6 0 Calma 5 Noroeste 0 -- -- 96
2017-09-26 00:00:00 10.6 2 Noroeste 9 Nordeste 0 -- -- 95
2017-09-25 23:00:00 11.5 2 Norte 5 Nordeste 0 -- -- 94
2017-09-25 22:00:00 13.2 2 Nordeste 4 Nordeste 0 -- -- 92
2017-09-25 21:00:00 15.2 0 Calma 11 Noroeste 0 -- -- 88
2017-09-25 20:00:00 17.2 6 Noroeste 17 Oeste 0 -- -- 80
2017-09-25 19:00:00 19 9 Noroeste 22 Noroeste 0 -- -- 73
2017-09-25 18:00:00 20.1 12 Noroeste 24 Noroeste 0 -- -- 67
2017-09-25 17:00:00 20.8 14 Noroeste 21 Noroeste 0 -- -- 62
2017-09-25 16:00:00 20.6 6 Noroeste 22 Noroeste 0 -- -- 59
2017-09-25 15:00:00 19.8 10 Noroeste 21 Noroeste 0 -- -- 60
2017-09-25 14:00:00 19.5 5 Sudoeste 12 Noroeste 0 -- -- 65
2017-09-25 13:00:00 17.3 5 Este 9 Este 0 -- -- 77
2017-09-25 12:00:00 15.8 4 Oeste 7 Oeste 0 -- -- 95
2017-09-25 11:00:00 14.3 0 Calma 5 Noroeste 0 -- -- 100
2017-09-25 10:00:00 13.1 0 Calma 4 Este 0.2 -- -- 100
2017-09-25 09:00:00 12.7 0 Calma 4 Nordeste 0 -- -- 100
2017-09-25 08:00:00 13.3 0 Calma 5 Nordeste 0 -- -- 100
2017-09-25 07:00:00 13.8 0 Calma 6 Sudoeste 0.2 -- -- 100
2017-09-25 06:00:00 13.8 0 Calma -- -- 0 -- -- 100
2017-09-25 05:00:00 13.8 0 Calma 3 Sudeste 0 -- -- 100
2017-09-25 04:00:00 13.9 0 Calma -- -- 0 -- -- 99
2017-09-25 03:00:00 13.7 0 Calma -- -- 0 -- -- 100
2017-09-25 02:00:00 13.6 0 Calma 4 Norte 0 -- -- 100
2017-09-25 01:00:00 13.5 2 Sudoeste 6 Noroeste 0 -- -- 99
2017-09-25 00:00:00 13.3 3 Norte 6 Norte 0 -- -- 99
2017-09-24 23:00:00 13.4 0 Calma 7 Noroeste 0 -- -- 99
2017-09-24 22:00:00 13.8 0 Calma 6 Sudoeste 0 -- -- 97
2017-09-24 21:00:00 14.7 4 Oeste 10 Noroeste 0.2 -- -- 98
2017-09-24 20:00:00 15 5 Sudoeste 13 Sudoeste 0.2 -- -- 98
2017-09-24 19:00:00 14.8 3 Oeste 6 Oeste 0 -- -- 97
2017-09-24 18:00:00 14.6 2 Sudoeste 11 Sur 0.6 -- -- 96
2017-09-24 17:00:00 14.6 2 Sur 13 Sudoeste 1 -- -- 96
2017-09-24 16:00:00 14.3 5 Norte 8 Nordeste 0.2 -- -- 94
2017-09-24 15:00:00 14.7 2 Este 17 Sudoeste 0 -- -- 87
2017-09-24 14:00:00 17.4 6 Sudoeste 21 Sudoeste 0 -- -- 66
2017-09-24 13:00:00 18.8 5 Sur 15 Sudoeste 0 -- -- 49
2017-09-24 12:00:00 18 8 Sudoeste 15 Sudoeste 0 -- -- 60
2017-09-24 11:00:00 13.4 0 Calma 8 Noroeste 0 -- -- 81
2017-09-24 10:00:00 9.6 3 Noroeste 9 Noroeste 0 -- -- 91
2017-09-24 09:00:00 7.2 6 Noroeste 8 Noroeste 0 -- -- 95
2017-09-24 08:00:00 6.6 4 Noroeste 8 Norte 0 -- -- 95
2017-09-24 07:00:00 6.8 3 Norte 8 Norte 0 -- -- 97
2017-09-24 06:00:00 7.6 0 Calma 9 Noroeste 0 -- -- 97
2017-09-24 05:00:00 7.6 3 Noroeste 8 Noroeste 0 -- -- 97
2017-09-24 04:00:00 8.1 4 Noroeste 6 Noroeste 0 -- -- 97
2017-09-24 03:00:00 8.1 3 Noroeste 8 Noroeste 0 -- -- 97
2017-09-24 02:00:00 8.2 4 Noroeste 7 Noroeste 0 -- -- 96
2017-09-24 01:00:00 8.8 4 Noroeste 7 Noroeste 0 -- -- 96
2017-09-24 00:00:00 9.6 0 Calma 7 Noroeste 0 -- -- 95
2017-09-23 23:00:00 10.8 3 Norte 5 Noroeste 0 -- -- 93
2017-09-23 22:00:00 12.8 2 Noroeste 4 Noroeste 0 -- -- 91
2017-09-23 21:00:00 15.1 0 Calma 5 Sur 0 -- -- 86
2017-09-23 20:00:00 16.9 4 Sur 7 Oeste 0.2 -- -- 82
2017-09-23 19:00:00 18.1 3 Sur 9 Sudoeste 0 -- -- 76
2017-09-23 18:00:00 18.3 8 Oeste 15 Noroeste 0 -- -- 73
2017-09-23 17:00:00 17.3 9 Noroeste 22 Sudoeste 0 -- -- 80
2017-09-23 16:00:00 19.8 13 Oeste 28 Oeste 0 -- -- 73
2017-09-23 15:00:00 21.3 9 Sudoeste 27 Sudoeste 0 -- -- 62
2017-09-23 14:00:00 20.7 9 Sudoeste 26 Sudoeste 0 -- -- 67
2017-09-23 13:00:00 18.8 6 Oeste 20 Sudoeste 0 -- -- 78
2017-09-23 12:00:00 17.2 9 Sudoeste 14 Sudoeste 0 -- -- 83
2017-09-23 11:00:00 15.2 4 Sudoeste 8 Oeste 0 -- -- 93
2017-09-23 10:00:00 11.4 2 Noroeste 5 Noroeste 0 -- -- 97
2017-09-23 09:00:00 8.9 4 Noroeste 8 Noroeste 0 -- -- 98
2017-09-23 08:00:00 9.3 2 Noroeste 4 Noroeste 0 -- -- 96
2017-09-23 07:00:00 10.2 0 Calma 7 Noroeste 0 -- -- 96
2017-09-23 06:00:00 10.4 0 Calma 8 Noroeste 0 -- -- 96
2017-09-23 05:00:00 11 0 Calma 7 Norte 0 -- -- 94
2017-09-23 04:00:00 11.6 3 Nordeste 10 Norte 0 -- -- 91
2017-09-23 03:00:00 12.9 3 Norte 8 Norte 0 -- -- 90
2017-09-23 02:00:00 12.4 6 Noroeste 10 Nordeste 0 -- -- 92
2017-09-23 01:00:00 14.9 4 Norte 24 Este 0 -- -- 81
2017-09-23 00:00:00 16.5 10 Este 22 Este 0 -- -- 79
2017-09-22 23:00:00 14.7 4 Norte 10 Este 0 -- -- 86
2017-09-22 22:00:00 16.4 5 Este 16 Este 0 -- -- 80
2017-09-22 21:00:00 18.1 5 Nordeste 12 Norte 0 -- -- 74
2017-09-22 20:00:00 20.8 6 Nordeste 18 Noroeste 0 -- -- 65
2017-09-22 19:00:00 23 6 Norte 22 Noroeste 0 -- -- 58
2017-09-22 18:00:00 23.7 6 Noroeste 15 Este 0 -- -- 50
2017-09-22 17:00:00 23.1 6 Nordeste 15 Este 0 -- -- 53
2017-09-22 16:00:00 22.5 3 Oeste 14 Sudoeste 0 -- -- 60
2017-09-22 15:00:00 21.3 4 Nordeste 22 Este 0 -- -- 58
2017-09-22 14:00:00 19.4 15 Este 33 Este 0 -- -- 68
2017-09-22 13:00:00 17.6 19 Este 33 Sudeste 0 -- -- 72
2017-09-22 12:00:00 15.8 22 Este 39 Este 0 -- -- 77
2017-09-22 11:00:00 14.1 27 Este 44 Este 0 -- -- 82
2017-09-22 10:00:00 13.7 18 Este 35 Este 0 -- -- 83
2017-09-22 09:00:00 12.7 10 Nordeste 36 Este 0 -- -- 87
2017-09-22 08:00:00 12.7 15 Este 30 Este 0 -- -- 86
2017-09-22 07:00:00 13 15 Nordeste 30 Este 0 -- -- 85
2017-09-22 06:00:00 13.1 11 Nordeste 38 Nordeste 0 -- -- 86
2017-09-22 05:00:00 13 24 Este 46 Este 0 -- -- 87
2017-09-22 04:00:00 12.8 6 Nordeste 22 Nordeste 0 -- -- 87
2017-09-22 03:00:00 13 5 Nordeste 26 Este 0 -- -- 86
2017-09-22 02:00:00 13.2 15 Este 42 Sudeste 0 -- -- 86
2017-09-22 01:00:00 13.2 19 Este 42 Este 0 -- -- 86
2017-09-22 00:00:00 13.4 8 Nordeste 27 Nordeste 0 -- -- 84
2017-09-21 23:00:00 13.8 11 Nordeste 31 Nordeste 0 -- -- 84
2017-09-21 22:00:00 14.1 10 Nordeste 18 Este 0 -- -- 85
2017-09-21 21:00:00 14 10 Este 23 Este 0.2 -- -- 86
2017-09-21 20:00:00 14.6 8 Nordeste 23 Este 0 -- -- 86
2017-09-21 19:00:00 15.4 11 Norte 25 Nordeste 0 -- -- 84
2017-09-21 18:00:00 16.1 10 Norte 28 Nordeste 0 -- -- 82
2017-09-21 17:00:00 16.3 8 Norte 23 Noroeste 0 -- -- 86
2017-09-21 16:00:00 16.4 5 Nordeste 18 Este 0 -- -- 86
2017-09-21 15:00:00 15.6 8 Nordeste 19 Noroeste 0.2 -- -- 91
2017-09-21 14:00:00 15.2 6 Nordeste 17 Nordeste 2.2 -- -- 94
2017-09-21 13:00:00 15.5 8 Nordeste 19 Norte 0.2 -- -- 91
2017-09-21 12:00:00 16.8 3 Noroeste 13 Sudoeste 0 -- -- 93
2017-09-21 11:00:00 15.4 4 Noroeste 10 Oeste 0 -- -- 96
2017-09-21 10:00:00 13.2 0 Calma 7 Noroeste 0 -- -- 98
2017-09-21 09:00:00 11.5 0 Calma 8 Nordeste 0 -- -- 98
2017-09-21 08:00:00 11.6 4 Norte 10 Norte 0 -- -- 98
2017-09-21 07:00:00 10.7 3 Noroeste 7 Noroeste 0 -- -- 98
2017-09-21 06:00:00 10.2 3 Norte 8 Noroeste 0 -- -- 99
2017-09-21 05:00:00 10.3 0 Calma 8 Nordeste 0 -- -- 97
2017-09-21 04:00:00 10 4 Noroeste 10 Nordeste 0 -- -- 96
2017-09-21 03:00:00 10.1 4 Norte 11 Noroeste 0 -- -- 96
2017-09-21 02:00:00 10.5 3 Noroeste 9 Nordeste 0 -- -- 95
2017-09-21 01:00:00 11.1 4 Nordeste 9 Nordeste 0 -- -- 95
2017-09-21 00:00:00 11.2 3 Norte 8 Noroeste 0 -- -- 94
2017-09-20 23:00:00 12.3 2 Noroeste 6 Noroeste 0 -- -- 92
2017-09-20 22:00:00 13.9 3 Noroeste 5 Noroeste 0 -- -- 88
2017-09-20 21:00:00 16.8 0 Calma 8 Noroeste 0 -- -- 79
2017-09-20 20:00:00 19.4 5 Noroeste 16 Noroeste 0 -- -- 69
2017-09-20 19:00:00 21.9 11 Noroeste 14 Noroeste 0 -- -- 54
2017-09-20 18:00:00 23 8 Oeste 15 Oeste 0 -- -- 55
2017-09-20 17:00:00 23 9 Noroeste 17 Oeste 0 -- -- 59
2017-09-20 16:00:00 23.3 7 Oeste 16 Oeste 0 -- -- 56
2017-09-20 15:00:00 23 5 Oeste 18 Sudoeste 0 -- -- 56
2017-09-20 14:00:00 21.5 6 Sudoeste 20 Sudoeste 0 -- -- 62
2017-09-20 13:00:00 19.6 6 Sudoeste 13 Sudoeste 0 -- -- 70
2017-09-20 12:00:00 17.9 5 Sudoeste 11 Sudoeste 0 -- -- 78
2017-09-20 11:00:00 15.6 4 Sudoeste 7 Oeste 0 -- -- 90
2017-09-20 10:00:00 11.5 2 Noroeste 10 Nordeste 0 -- -- 99
2017-09-20 09:00:00 8.3 6 Norte 11 Norte 0 -- -- 99
2017-09-20 08:00:00 8.8 5 Nordeste 12 Nordeste 0 -- -- 99
2017-09-20 07:00:00 8.5 3 Noroeste 13 Norte 0 -- -- 98
2017-09-20 06:00:00 8.5 5 Norte 10 Norte 0 -- -- 97
2017-09-20 05:00:00 8.4 3 Norte 6 Norte 0 -- -- 96
2017-09-20 04:00:00 9.8 4 Norte 15 Norte 0 -- -- 97
2017-09-20 03:00:00 9.9 6 Norte 13 Nordeste 0 -- -- 100
2017-09-20 02:00:00 9.6 5 Norte 13 Nordeste 0 -- -- 96
2017-09-20 01:00:00 9.8 4 Norte 8 Nordeste 0 -- -- 96
2017-09-20 00:00:00 10.9 3 Nordeste 6 Nordeste 0 -- -- 96